User: anonymous   Login
Location: Unspecified
(0.0000°N, 0.0000°E)
Time: 19:58:35
(UTC+00:00)
Language:

PLEIADES HR1 - Orbit

View from above orbital plane
View from above orbital plane
View from above satellite
View from above satellite

Ground track
Ground track

The orbit data is extracted from the following two-line orbital elements,

1 38012U 11076F   14304.19555262  .00002244  00000-0  49259-3 0  2195
2 38012 098.1829 017.2260 0001714 084.3151 275.7649 14.58528607152921
Epoch (UTC): 31 October 2014 04:41:35
Eccentricity: 0.0001714
inclination: 98.1829°
perigee height: 697 km
apogee height: 699 km
right ascension of ascending node: 17.2260°
argument of perigee: 84.3151°
revolutions per day: 14.58528607
mean anomaly at epoch: 275.7649°
orbit number at epoch: 15292

The dashed part of the orbit path shows where the satellite is in the earth's shadow,  

DLR